GW0378 Weather Reports


time (UTC)temp
C
wind
direction
speed
KPH
gust
KPH
rain 1hr
cm
rain 24hr
cm
rain mn
cm
humidity
%
barometer
mb
20260509095505 7 59 4.8 11.3 0.00 0.00 0.00 55 1018.0
20260509095003 7 105 0.0 4.8 0.00 0.00 0.00 57 1018.1
20260509094459 7 65 4.8 8.0 0.00 0.00 0.00 55 1018.1
20260509093956 8 52 8.0 12.9 0.00 0.00 0.00 53 1018.0
20260509093454 7 57 3.2 6.4 0.00 0.00 0.00 54 1018.0
20260509092951 9 94 3.2 4.8 0.00 0.00 0.00 49 1018.0
20260509092449 10 257 4.8 12.9 0.00 0.00 0.00 46 1017.9
20260509091948 7 99 3.2 8.0 0.00 0.00 0.00 54 1018.0
20260509091444 7 109 8.0 8.0 0.00 0.00 0.00 53 1018.0
20260509090941 7 103 4.8 9.7 0.00 0.00 0.00 54 1018.0
20260509090439 7 106 3.2 4.8 0.00 0.00 0.00 57 1018.0
20260509085936 7 117 4.8 6.4 0.00 0.00 0.00 55 1017.9
20260509085433 7 99 6.4 8.0 0.00 0.00 0.00 53 1017.8
20260509084929 8 97 6.4 8.0 0.00 0.00 0.00 51 1017.8
20260509084426 8 84 4.8 9.7 0.00 0.00 0.00 51 1018.1
20260509083924 8 110 8.0 9.7 0.00 0.00 0.00 52 1017.8
20260509083421 7 120 8.0 12.9 0.00 0.00 0.00 52 1017.8
20260509082917 7 107 6.4 8.0 0.00 0.00 0.00 53 1017.8
20260509082415 8 105 6.4 6.4 0.00 0.00 0.00 52 1017.7
20260509081911 8 123 4.8 6.4 0.00 0.00 0.00 51 1017.7
20260509081409 8 127 4.8 4.8 0.00 0.00 0.00 50 1017.8
20260509080906 8 116 4.8 6.4 0.00 0.00 0.00 49 1017.8
20260509080404 8 107 6.4 6.4 0.00 0.00 0.00 49 1017.7
20260509075902 8 138 4.8 8.0 0.00 0.00 0.00 51 1017.8
20260509075359 8 107 4.8 6.4 0.00 0.00 0.00 49 1017.7
20260509074856 8 71 3.2 6.4 0.00 0.00 0.00 50 1017.4
20260509074354 8 105 4.8 4.8 0.00 0.00 0.00 50 1017.6
20260509073850 8 113 3.2 4.8 0.00 0.00 0.00 49 1017.7
20260509073346 10 138 4.8 4.8 0.00 0.00 0.00 46 1017.5
20260509072843 9 111 4.8 6.4 0.00 0.00 0.00 46 1017.6
20260509072339 9 96 4.8 6.4 0.00 0.00 0.00 47 1017.5
20260509071836 10 107 4.8 4.8 0.00 0.00 0.00 45 1017.4
20260509071333 10 112 3.2 4.8 0.00 0.00 0.00 44 1017.4
20260509070830 11 117 4.8 4.8 0.00 0.00 0.00 42 1017.4
20260509070327 11 143 3.2 3.2 0.00 0.00 0.00 41 1017.4
20260509065823 11 101 3.2 4.8 0.00 0.00 0.00 41 1017.5
20260509065319 12 94 4.8 4.8 0.00 0.00 0.00 39 1017.2
20260509064815 12 188 0.0 4.8 0.00 0.00 0.00 38 1017.2
20260509064313 12 195 1.6 4.8 0.00 0.00 0.00 38 1017.2
20260509063811 12 180 0.0 4.8 0.00 0.00 0.00 38 1017.0
20260509063307 13 295 3.2 6.4 0.00 0.00 0.00 37 1017.0
20260509062804 13 214 4.8 6.4 0.00 0.00 0.00 36 1016.9
20260509062301 13 248 9.7 12.9 0.00 0.00 0.00 35 1017.0
20260509061758 13 233 4.8 8.0 0.00 0.00 0.00 36 1016.9
20260509061256 13 273 4.8 14.5 0.00 0.00 0.00 35 1017.0
20260509060753 13 262 3.2 14.5 0.00 0.00 0.00 35 1017.1
20260509060250 12 172 0.0 4.8 0.00 0.00 0.00 39 1017.1
20260509055745 13 250 3.2 4.8 0.00 0.00 0.00 37 1016.9
20260509055241 13 235 6.4 8.0 0.00 0.00 0.00 37 1017.1
20260509054738 13 280 3.2 8.0 0.00 0.00 0.00 37 1016.7
20260509054235 13 214 4.8 6.4 0.00 0.00 0.00 36 1016.8
20260509053733 14 284 6.4 11.3 0.00 0.00 0.00 35 1016.8
20260509053230 14 246 6.4 22.5 0.00 0.00 0.00 34 1016.7
20260509052728 13 243 6.4 14.5 0.00 0.00 0.00 36 1016.8
20260509052225 13 276 0.0 12.9 0.00 0.00 0.00 37 1016.7
20260509051723 13 248 4.8 4.8 0.00 0.00 0.00 38 1016.7
20260509051221 13 297 0.0 3.2 0.00 0.00 0.00 40 1016.6
20260509050717 13 200 1.6 8.0 0.00 0.00 0.00 38 1016.7
20260509050213 14 244 4.8 8.0 0.00 0.00 0.00 35 1016.7
20260509045711 14 319 6.4 6.4 0.00 0.00 0.00 35 1016.8
20260509045208 15 284 4.8 6.4 0.00 0.00 0.00 35 1016.7
20260509044705 15 275 3.2 9.7 0.00 0.00 0.00 34 1016.6
20260509044203 15 302 4.8 4.8 0.00 0.00 0.00 33 1016.7
20260509043659 15 277 4.8 6.4 0.00 0.00 0.00 33 1016.5
20260509043155 15 249 6.4 11.3 0.00 0.00 0.00 33 1016.5
20260509042651 15 275 6.4 14.5 0.00 0.00 0.00 32 1016.5
20260509042147 15 243 8.0 9.7 0.00 0.00 0.00 32 1016.2
20260509041644 15 276 8.0 8.0 0.00 0.00 0.00 32 1016.2
20260509041141 16 263 6.4 16.1 0.00 0.00 0.00 31 1016.2
20260509040640 15 210 3.2 8.0 0.00 0.00 0.00 32 1016.0
20260509040136 16 236 6.4 8.0 0.00 0.00 0.00 31 1016.4
20260509035633 16 283 0.0 8.0 0.00 0.00 0.00 31 1016.2
20260509035130 16 278 1.6 11.3 0.00 0.00 0.00 30 1016.0
20260509034628 16 248 6.4 20.9 0.00 0.00 0.00 30 1016.0
20260509034125 16 289 12.9 25.7 0.00 0.00 0.00 30 1015.8
20260509033621 16 261 8.0 22.5 0.00 0.00 0.00 29 1015.8
20260509033118 16 243 8.0 16.1 0.00 0.00 0.00 30 1015.6
20260509032616 16 233 14.5 14.5 0.00 0.00 0.00 31 1015.7
20260509032113 16 245 3.2 14.5 0.00 0.00 0.00 31 1015.2
20260509031611 16 241 8.0 20.9 0.00 0.00 0.00 30 1015.5
20260509031108 16 160 1.6 11.3 0.00 0.00 0.00 34 1015.4
20260509030606 16 270 4.8 9.7 0.00 0.00 0.00 34 1015.4
20260509025558 16 252 4.8 16.1 0.00 0.00 0.00 32 1014.9
20260509025054 16 295 11.3 20.9 0.00 0.00 0.00 33 1014.9
20260509024550 17 261 8.0 16.1 0.00 0.00 0.00 34 1014.7
20260509024046 17 222 17.7 25.7 0.00 0.00 0.00 33 1014.4
20260509023544 17 230 8.0 17.7 0.00 0.00 0.00 34 1014.4
20260509023041 17 247 9.7 19.3 0.00 0.00 0.00 34 1014.4
20260509022537 17 245 19.3 27.4 0.00 0.00 0.00 34 1014.4
20260509022035 17 210 9.7 20.9 0.00 0.00 0.00 33 1014.1
20260509021532 18 250 14.5 24.1 0.00 0.00 0.00 32 1014.1
20260509021029 18 260 9.7 19.3 0.00 0.00 0.00 31 1014.1
20260509020528 19 274 9.7 17.7 0.00 0.00 0.00 30 1014.0
20260509020024 19 268 8.0 17.7 0.00 0.00 0.00 28 1013.9
20260509015523 19 270 14.5 19.3 0.00 0.00 0.00 27 1013.8
20260509015020 19 257 9.7 22.5 0.00 0.00 0.00 26 1013.8
20260509014516 19 265 6.4 16.1 0.00 0.00 0.00 27 1013.9
20260509014012 19 278 9.7 9.7 0.00 0.00 0.00 27 1013.7
20260509013510 18 243 6.4 14.5 0.00 0.00 0.00 26 1013.8
20260509013005 18 244 11.3 22.5 0.00 0.00 0.00 26 1013.9
20260509012502 18 229 9.7 24.1 0.00 0.00 0.00 25 1013.8
20260509011959 18 254 17.7 38.6 0.00 0.00 0.00 25 1013.7
20260509011457 18 223 14.5 24.1 0.00 0.00 0.00 24 1013.7
20260509010954 18 232 8.0 19.3 0.00 0.00 0.00 26 1013.7
20260509010452 18 270 4.8 12.9 0.00 0.00 0.00 25 1013.7
20260509005948 18 261 17.7 20.9 0.00 0.00 0.00 24 1013.8
20260509005446 18 238 11.3 17.7 0.00 0.00 0.00 24 1013.6
20260509004946 18 250 14.5 20.9 0.00 0.00 0.00 25 1013.5
20260509004443 18 245 3.2 14.5 0.00 0.00 0.00 26 1013.5
20260509003941 18 277 6.4 16.1 0.00 0.00 0.00 25 1013.6
20260509003439 18 259 9.7 22.5 0.00 0.00 0.00 25 1013.6
20260509002935 18 203 4.8 9.7 0.00 0.00 0.00 26 1013.5
20260509002433 18 223 6.4 14.5 0.00 0.00 0.00 25 1013.5
20260509001930 18 277 4.8 19.3 0.00 0.00 0.00 25 1013.6
20260509001426 18 235 4.8 14.5 0.00 0.00 0.00 28 1013.5
20260509000923 18 246 12.9 22.5 0.00 0.00 0.00 25 1013.7
20260509000421 18 239 6.4 19.3 0.00 0.00 0.00 26 1013.4
20260508235917 18 233 11.3 24.1 0.00 0.00 0.00 27 1013.6
20260508235415 18 263 16.1 32.2 0.00 0.00 0.00 26 1013.5
20260508234911 19 239 17.7 32.2 0.00 0.00 0.00 25 1013.4
20260508234409 19 244 17.7 29.0 0.00 0.00 0.00 27 1013.4
20260508233906 19 232 4.8 16.1 0.00 0.00 0.00 27 1013.5
20260508233406 20 283 11.3 20.9 0.00 0.00 0.00 26 1013.4
20260508232902 20 240 6.4 32.2 0.00 0.00 0.00 27 1013.4
20260508232358 20 255 4.8 25.7 0.00 0.00 0.00 28 1013.5
20260508231857 20 249 4.8 12.9 0.00 0.00 0.00 28 1013.2
20260508231353 20 212 9.7 11.3 0.00 0.00 0.00 29 1013.4
20260508230850 20 259 8.0 22.5 0.00 0.00 0.00 29 1013.5
20260508230346 20 252 3.2 19.3 0.00 0.00 0.00 35 1013.4
20260508225844 20 226 11.3 17.7 0.00 0.00 0.00 36 1013.2
20260508225340 20 275 8.0 17.7 0.00 0.00 0.00 38 1013.1
20260508224838 20 257 6.4 11.3 0.00 0.00 0.00 41 1013.4
20260508224335 20 283 4.8 8.0 0.00 0.00 0.00 40 1013.2
20260508223833 20 257 6.4 9.7 0.00 0.00 0.00 40 1013.2
20260508223330 20 278 8.0 8.0 0.00 0.00 0.00 40 1013.5
20260508222827 20 305 4.8 8.0 0.00 0.00 0.00 42 1013.4
20260508222325 20 301 3.2 6.4 0.00 0.00 0.00 42 1013.1
20260508221821 21 304 0.0 4.8 0.00 0.00 0.00 39 1013.4
20260508221316 21 220 3.2 3.2 0.00 0.00 0.00 39 1013.2
20260508220813 21 75 1.6 4.8 0.00 0.00 0.00 39 1013.1
20260508220310 20 255 0.0 4.8 0.00 0.00 0.00 38 1013.2
20260508215807 20 257 3.2 8.0 0.00 0.00 0.00 39 1013.4
20260508215306 20 337 0.0 8.0 0.00 0.00 0.00 39 1013.2
20260508214800 20 5 1.6 6.4 0.00 0.00 0.00 39 1013.4
20260508214257 20 282 0.0 9.7 0.00 0.00 0.00 39 1013.4
20260508213754 20 356 3.2 8.0 0.00 0.00 0.00 39 1013.4
20260508213250 21 261 6.4 6.4 0.00 0.00 0.00 41 1013.4
20260508212747 21 286 0.0 4.8 0.00 0.00 0.00 41 1013.6
20260508212243 20 4 3.2 6.4 0.00 0.00 0.00 40 1013.7
20260508211739 20 0 3.2 6.4 0.00 0.00 0.00 41 1013.6
20260508211235 20 236 4.8 4.8 0.00 0.00 0.00 41 1013.6
20260508210733 20 277 1.6 8.0 0.00 0.00 0.00 41 1013.7
20260508210229 20 11 3.2 8.0 0.00 0.00 0.00 40 1013.8
20260508205726 20 346 1.6 4.8 0.00 0.00 0.00 39 1013.8
20260508205223 20 20 0.0 4.8 0.00 0.00 0.00 39 1013.8
20260508204719 20 312 3.2 4.8 0.00 0.00 0.00 41 1013.9
20260508204215 20 35 0.0 4.8 0.00 0.00 0.00 40 1013.9
20260508203712 20 349 4.8 9.7 0.00 0.00 0.00 42 1013.8
20260508203208 20 279 6.4 9.7 0.00 0.00 0.00 44 1013.9
20260508202704 20 254 8.0 9.7 0.00 0.00 0.00 43 1014.1
20260508202201 20 286 4.8 8.0 0.00 0.00 0.00 43 1014.4
20260508201658 19 350 3.2 6.4 0.00 0.00 0.00 43 1014.0
20260508201155 19 272 8.0 11.3 0.00 0.00 0.00 43 1013.9
20260508200652 19 248 8.0 11.3 0.00 0.00 0.00 44 1014.0
20260508200147 20 294 3.2 8.0 0.00 0.00 0.00 44 1014.1
20260508195644 20 315 3.2 9.7 0.00 0.00 0.00 44 1014.4
20260508195141 19 327 3.2 6.4 0.00 0.00 0.00 45 1014.1
20260508194637 19 331 1.6 8.0 0.00 0.00 0.00 43 1014.2
20260508194134 19 326 4.8 6.4 0.00 0.00 0.00 44 1014.4
20260508193631 19 270 9.7 11.3 0.00 0.00 0.00 44 1014.5
20260508193128 19 270 8.0 12.9 0.00 0.00 0.00 45 1014.5
20260508192625 20 307 3.2 9.7 0.00 0.00 0.00 46 1014.1
20260508192122 19 8 0.0 6.4 0.00 0.00 0.00 43 1014.5
20260508191618 19 290 4.8 8.0 0.00 0.00 0.00 44 1014.6
20260508191115 19 311 4.8 8.0 0.00 0.00 0.00 44 1014.6
20260508190613 19 57 6.4 12.9 0.00 0.00 0.00 46 1014.4
20260508190109 18 270 3.2 8.0 0.00 0.00 0.00 45 1014.6
20260508185606 18 270 4.8 9.7 0.00 0.00 0.00 45 1014.9
20260508185103 18 290 8.0 11.3 0.00 0.00 0.00 46 1014.8
20260508184601 18 333 8.0 11.3 0.00 0.00 0.00 45 1014.8
20260508184057 19 59 3.2 6.4 0.00 0.00 0.00 45 1014.9
20260508183554 18 327 3.2 11.3 0.00 0.00 0.00 46 1015.1
20260508183050 18 66 1.6 11.3 0.00 0.00 0.00 46 1015.1
20260508182547 18 29 4.8 8.0 0.00 0.00 0.00 48 1015.0
20260508182043 17 19 3.2 9.7 0.00 0.00 0.00 48 1015.4
20260508181538 17 192 3.2 8.0 0.00 0.00 0.00 48 1015.5
20260508181036 17 142 8.0 8.0 0.00 0.00 0.00 48 1015.2
20260508180533 17 323 4.8 12.9 0.00 0.00 0.00 50 1015.4
20260508180029 17 0 3.2 6.4 0.00 0.00 0.00 51 1015.4
20260508175526 17 71 3.2 6.4 0.00 0.00 0.00 50 1015.5
20260508175023 17 338 3.2 8.0 0.00 0.00 0.00 51 1015.5
20260508174520 17 358 4.8 9.7 0.00 0.00 0.00 51 1015.7
20260508174017 16 270 4.8 8.0 0.00 0.00 0.00 52 1015.9
20260508173514 16 7 3.2 6.4 0.00 0.00 0.00 53 1015.8
20260508173010 16 321 3.2 9.7 0.00 0.00 0.00 53 1015.8
20260508172508 16 286 6.4 11.3 0.00 0.00 0.00 53 1015.7
20260508172004 16 78 3.2 8.0 0.00 0.00 0.00 55 1015.9
20260508171501 16 56 3.2 8.0 0.00 0.00 0.00 53 1015.9
20260508170957 16 69 0.0 1.6 0.00 0.00 0.00 54 1015.9
20260508170454 15 318 4.8 6.4 0.00 0.00 0.00 56 1016.0
20260508165951 16 340 8.0 11.3 0.00 0.00 0.00 55 1016.1
20260508165449 15 100 0.0 6.4 0.00 0.00 0.00 56 1016.2
20260508164944 15 226 8.0 11.3 0.00 0.00 0.00 56 1016.1
20260508164442 15 303 4.8 4.8 0.00 0.00 0.00 58 1016.1
20260508163939 14 127 4.8 6.4 0.00 0.00 0.00 59 1016.1
20260508163437 13 280 6.4 9.7 0.00 0.00 0.00 60 1016.5
20260508162932 13 18 4.8 8.0 0.00 0.00 0.00 61 1016.4
20260508162430 13 299 3.2 8.0 0.00 0.00 0.00 60 1016.2
20260508161926 13 266 0.0 9.7 0.00 0.00 0.00 62 1016.4
20260508161423 13 197 0.0 3.2 0.00 0.00 0.00 59 1016.7
20260508160921 13 213 3.2 6.4 0.00 0.00 0.00 61 1016.4
20260508160420 12 286 1.6 4.8 0.00 0.00 0.00 62 1016.5
20260508155915 12 304 3.2 8.0 0.00 0.00 0.00 63 1016.5
20260508155413 13 348 3.2 6.4 0.00 0.00 0.00 64 1016.6
20260508154910 12 0 0.0 6.4 0.00 0.00 0.00 63 1016.6
20260508154407 12 12 1.6 8.0 0.00 0.00 0.00 63 1016.7
20260508153904 12 0 0.0 6.4 0.00 0.00 0.00 67 1016.6
20260508153401 12 290 4.8 6.4 0.00 0.00 0.00 67 1016.6
20260508152857 12 0 3.2 4.8 0.00 0.00 0.00 66 1016.6
20260508152353 11 307 3.2 6.4 0.00 0.00 0.00 67 1016.8
20260508151850 11 270 1.6 6.4 0.00 0.00 0.00 68 1016.8
20260508151347 11 172 0.0 4.8 0.00 0.00 0.00 67 1016.7
20260508150843 11 300 1.6 4.8 0.00 0.00 0.00 69 1016.6
20260508150340 10 293 6.4 6.4 0.00 0.00 0.00 71 1016.9
20260508145836 10 354 4.8 6.4 0.00 0.00 0.00 70 1016.8
20260508145332 10 279 0.0 4.8 0.00 0.00 0.00 71 1016.7
20260508144829 11 295 3.2 4.8 0.00 0.00 0.00 70 1016.8
20260508144327 11 57 1.6 4.8 0.00 0.00 0.00 67 1016.8
20260508143824 10 82 0.0 3.2 0.00 0.00 0.00 71 1016.7
20260508143321 10 15 0.0 3.2 0.00 0.00 0.00 73 1016.7
20260508142818 10 0 0.0 4.8 0.00 0.00 0.00 74 1016.6
20260508142315 10 66 1.6 4.8 0.00 0.00 0.00 72 1016.8
20260508141811 10 56 3.2 3.2 0.00 0.00 0.00 73 1016.6
20260508141309 9 180 3.2 3.2 0.00 0.00 0.00 76 1016.7
20260508140806 8 187 0.0 1.6 0.00 0.00 0.00 77 1016.9
20260508140303 7 105 1.6 3.2 0.00 0.00 0.00 81 1016.7
20260508135758 7 96 3.2 3.2 0.00 0.00 0.00 83 1016.8
20260508135255 7 95 3.2 4.8 0.00 0.00 0.00 82 1016.8
20260508134750 7 81 3.2 4.8 0.00 0.00 0.00 84 1016.9
20260508134248 6 98 0.0 1.6 0.00 0.00 0.00 85 1016.7
20260508133744 6 120 0.0 1.6 0.00 0.00 0.00 84 1016.7
20260508133242 6 120 1.6 3.2 0.00 0.00 0.00 84 1016.7
20260508132740 7 270 0.0 3.2 0.00 0.00 0.00 84 1016.8
20260508132237 7 264 3.2 3.2 0.00 0.00 0.00 84 1016.7
20260508131732 6 180 0.0 3.2 0.00 0.00 0.00 85 1016.7
20260508131229 6 204 3.2 3.2 0.00 0.00 0.00 86 1016.6
20260508130726 6 102 4.8 6.4 0.00 0.00 0.00 86 1016.4
20260508130223 6 69 1.6 4.8 0.00 0.00 0.00 86 1016.5
20260508125718 6 105 3.2 3.2 0.00 0.00 0.00 86 1016.5
20260508125215 6 139 3.2 3.2 0.00 0.00 0.00 85 1016.4
20260508124713 6 120 0.0 3.2 0.00 0.00 0.00 86 1016.2
20260508124210 6 135 0.0 3.2 0.00 0.00 0.00 85 1016.2
20260508123709 6 165 0.0 0.0 0.00 0.00 0.00 85 1016.4
20260508123206 6 143 0.0 4.8 0.00 0.00 0.00 85 1016.2
20260508122702 6 105 3.2 3.2 0.00 0.00 0.00 86 1016.4
20260508122159 6 151 4.8 6.4 0.00 0.00 0.00 86 1016.1
20260508121657 5 117 3.2 4.8 0.00 0.00 0.00 86 1016.0
20260508121155 6 117 3.2 3.2 0.00 0.00 0.00 86 1016.0
20260508120652 6 114 1.6 4.8 0.00 0.00 0.00 85 1015.9
20260508120150 6 102 3.2 4.8 0.00 0.00 0.00 84 1016.1
20260508115648 6 104 4.8 4.8 0.00 0.00 0.00 84 1016.0
20260508115144 6 97 4.8 4.8 0.00 0.00 0.00 84 1016.0
20260508114641 6 131 0.0 3.2 0.00 0.00 0.00 83 1016.1
20260508114137 7 120 3.2 4.8 0.00 0.00 0.00 82 1016.0
20260508113635 6 90 3.2 4.8 0.00 0.00 0.00 83 1015.9
20260508113133 6 117 3.2 6.4 0.00 0.00 0.00 83 1015.8
20260508112629 6 114 0.0 3.2 0.00 0.00 0.00 83 1016.0
20260508112126 6 111 1.6 3.2 0.00 0.00 0.00 82 1015.9
20260508111622 6 135 0.0 4.8 0.00 0.00 0.00 83 1016.2
20260508111120 6 90 1.6 4.8 0.00 0.00 0.00 83 1016.1
20260508110618 6 101 3.2 3.2 0.00 0.00 0.00 82 1016.1
20260508110113 7 86 0.0 6.4 0.00 0.00 0.00 81 1015.9
20260508105608 7 113 4.8 9.7 0.00 0.00 0.00 81 1015.8
20260508105106 7 95 4.8 8.0 0.00 0.00 0.00 81 1015.9
20260508104603 7 107 6.4 6.4 0.00 0.00 0.00 81 1016.0
20260508104100 7 97 6.4 6.4 0.00 0.00 0.00 81 1016.1
20260508103557 7 103 4.8 6.4 0.00 0.00 0.00 79 1015.9
20260508103054 7 90 3.2 3.2 0.00 0.00 0.00 79 1015.9
20260508102552 7 120 1.6 4.8 0.00 0.00 0.00 79 1015.9
20260508102049 7 108 3.2 4.8 0.00 0.00 0.00 79 1015.8
20260508101546 8 124 3.2 8.0 0.00 0.00 0.00 77 1015.7
20260508101043 7 94 4.8 4.8 0.00 0.00 0.00 78 1015.7
20260508100542 7 103 3.2 4.8 0.00 0.00 0.00 79 1015.6
20260508100038 8 90 3.2 4.8 0.00 0.00 0.00 77 1015.7